Location: Bethera
(33.2010°N, 79.7880°W)
Time: 11:00:32
(UTC-04:00)

Amateur Radio Satellites - All Passes

Search period start: 25 August 2016 10:30
Search period end: 26 August 2016 10:30
Location: Bethera, 33.2010°N, 79.7880°W

Satellite Date Start Highest point End Downlink Frequencies (MHz)
Time Altitude Azimuth
CANX-2 25 Aug 10:33:04 10:33:45 10° 293° (WNW) 10:34:26 2200.000
SO-50 25 Aug 10:35:54 10:40:24 61° 245° (WSW) 10:44:46 436.795
UNISAT 6 25 Aug 10:41:10 10:45:45 60° 75° (ENE) 10:50:16 437.425
AIST 1 25 Aug 10:50:21 10:54:18 34° 281° (W) 10:58:17
AAUSAT CUBESAT 2 25 Aug 10:54:57 10:57:38 17° 291° (WNW) 11:00:19 437.432
QB50P2 25 Aug 10:56:27 10:57:28 11° 66° (ENE) 10:58:28 145.880/145.840
POLYITAN 1 25 Aug 10:58:50 10:59:59 11° 66° (ENE) 11:01:08 437.675
COMPASS 1 25 Aug 11:01:19 11:02:43 11° 293° (WNW) 11:04:07 437.405
BEESAT 2 25 Aug 11:03:32 11:07:25 66° 116° (ESE) 11:11:21 435.950
ISS 25 Aug 11:03:53 11:06:03 16° 327° (NNW) 11:08:14 145.825
HO-68 25 Aug 11:06:29 11:10:57 18° 300° (WNW) 11:15:23 435.675
NANOSAT C BR1 25 Aug 11:09:04 11:11:13 14° 68° (ENE) 11:13:23 145.865
HUMSAT D 25 Aug 11:09:54 11:13:47 43° 99° (E) 11:17:40 437.325/437.525
Oscar 11 25 Aug 11:11:42 11:15:26 29° 288° (WNW) 11:19:10 145.826/435.025
CUBEBUG 2 25 Aug 11:12:26 11:14:08 12° 293° (WNW) 11:15:50 437.445
UWE-3 25 Aug 11:15:08 11:17:49 17° 291° (WNW) 11:20:28 435.000/436.395/437.385
FUNcube-1 25 Aug 11:15:26 11:18:57 27° 288° (WNW) 11:22:28 145.935
ANTELSAT 25 Aug 11:18:20 11:22:51 50° 260° (W) 11:27:19 437.575/2403.000
DELFI C3 25 Aug 11:21:21 11:25:15 53° 284° (WNW) 11:29:09 145.870
CUSAT 1 25 Aug 11:27:56 11:34:26 79° 83° (E) 11:42:13 437.405
BEESAT 3 25 Aug 11:27:59 11:31:24 28° 304° (NW) 11:34:52 437.485
Cosmos 2499 25 Aug 11:32:11 11:35:20 13° 81° (E) 11:38:25 435.465 / 435.565
ZACube-1 25 Aug 11:36:16 11:38:42 15° 291° (WNW) 11:41:07 437.345
JUGNU 25 Aug 11:41:04 11:43:52 13° 165° (SSE) 11:46:41 437.505
AUBIESAT-1 25 Aug 11:45:41 11:48:36 19° 99° (E) 11:51:22 437.475
M-CUBED/EXP-1 PRIME 25 Aug 11:48:28 11:51:59 27° 100° (E) 11:55:15 437.505
QB50P1 25 Aug 11:49:15 11:53:19 44° 74° (ENE) 11:57:24 145.935-145.965
TIGRISAT 25 Aug 11:51:03 11:54:45 23° 264° (W) 11:58:26 435.000
DANDE 25 Aug 11:58:16 12:03:37 56° 82° (E) 12:10:34 436.750
POPSAT HIP 1 25 Aug 11:58:50 12:03:02 58° 75° (ENE) 12:07:15 437.405
BUGSAT 1 25 Aug 12:02:09 12:05:26 22° 70° (ENE) 12:08:43 437.445
VELOX 1 25 Aug 12:13:45 12:16:43 17° 95° (E) 12:19:39 145.980
GONETS M04 25 Aug 12:18:57 12:27:04 45° 88° (E) 12:35:14
UNISAT 6 25 Aug 12:22:08 12:22:42 10° 268° (W) 12:23:17 437.425
CUBEBUG 1 25 Aug 12:22:24 12:26:11 28° 97° (E) 12:29:57 437.445
JAS-2 25 Aug 12:23:35 12:28:29 45° 72° (ENE) 12:33:33 435.910
RS-15 25 Aug 12:25:13 12:37:33 77° 246° (WSW) 12:49:32 29.354- 29.394
QB50P2 25 Aug 12:28:34 12:32:44 53° 260° (W) 12:36:57 145.880/145.840
DUCHIFAT 1 25 Aug 12:29:51 12:34:04 64° 258° (WSW) 12:38:19 145.980
POLYITAN 1 25 Aug 12:31:06 12:35:17 52° 260° (W) 12:39:29 437.675
DX 1 25 Aug 12:39:57 12:43:26 23° 96° (E) 12:46:53 434.975-435.025
Oscar 19 25 Aug 12:40:27 12:42:17 12° 63° (ENE) 12:44:07 437.125/150
ESTCUBE 1 25 Aug 12:41:26 12:45:59 77° 102° (ESE) 12:50:31 437.505/2401.250
NANOSAT C BR1 25 Aug 12:42:32 12:46:33 40° 261° (W) 12:50:35 145.865
HUMSAT D 25 Aug 12:47:32 12:48:59 12° 293° (WNW) 12:50:25 437.325/437.525
PCSat 25 Aug 12:51:08 12:56:32 84° 115° (ESE) 13:01:59 145.827
AIST 2 25 Aug 12:51:58 12:55:40 34° 113° (ESE) 12:59:25 435.215
SPROUT 25 Aug 12:53:02 12:56:30 24° 96° (E) 12:59:55 437.525
50 SAT 25 Aug 12:57:44 13:01:21 63° 102° (ESE) 13:04:57 437.505
AISAT 25 Aug 13:01:10 13:05:38 70° 102° (ESE) 13:10:03 437.250
CUSAT 1 25 Aug 13:12:16 13:16:03 16° 272° (W) 13:20:08 437.405
Cosmos 2499 25 Aug 13:19:00 13:27:27 89° 95° (E) 13:35:16 435.465 / 435.565
AUBIESAT-1 25 Aug 13:19:45 13:22:59 23° 295° (WNW) 13:26:02 437.475
M-CUBED/EXP-1 PRIME 25 Aug 13:23:26 13:26:15 18° 297° (WNW) 13:28:55 437.505
UKube-1 25 Aug 13:24:58 13:29:16 62° 101° (ESE) 13:33:32 .
Gurwin Techsat 1B 25 Aug 13:27:41 13:30:56 17° 65° (ENE) 13:34:10 435.225
QB50P1 25 Aug 13:27:42 13:29:15 12° 267° (W) 13:30:50 145.935-145.965
JUGNU 25 Aug 13:27:55 13:32:13 21° 175° (S) 13:36:30 437.505
BUGSAT 1 25 Aug 13:37:11 13:40:38 24° 264° (W) 13:44:07 437.445
DANDE 25 Aug 13:42:26 13:46:15 18° 268° (W) 13:50:41 436.750
VELOX 1 25 Aug 13:49:11 13:53:12 33° 288° (WNW) 13:57:11 145.980
CUBEBUG 1 25 Aug 13:58:57 14:02:16 21° 291° (WNW) 14:05:34 437.445
JAS-2 25 Aug 14:10:54 14:13:54 15° 267° (W) 14:16:55 435.910
Oscar 19 25 Aug 14:15:49 14:20:56 70° 258° (WSW) 14:26:06 437.125/150
DX 1 25 Aug 14:15:56 14:19:30 25° 290° (WNW) 14:23:04 434.975-435.025
GONETS M04 25 Aug 14:16:18 14:23:55 33° 285° (WNW) 14:31:40
SPROUT 25 Aug 14:28:57 14:32:17 22° 290° (WNW) 14:35:36 437.525
AIST 2 25 Aug 14:31:28 14:34:14 17° 308° (NW) 14:37:01 435.215
O/OREOS (USA 219) 25 Aug 14:36:14 14:40:34 53° 106° (ESE) 14:44:58 437.305
PCSat 25 Aug 14:38:20 14:40:35 12° 311° (NW) 14:42:51 145.827
RS-15 25 Aug 14:42:29 14:47:55 14° 263° (W) 14:53:17 29.354- 29.394
SWISSCUBE 25 Aug 14:50:09 14:53:44 21° 96° (E) 14:57:19 437.505
TISAT 1 25 Aug 14:56:57 15:01:03 52° 285° (WNW) 15:05:07 437.305
SRMSAT 25 Aug 15:00:07 15:04:01 18° 170° (S) 15:07:55 437.500
Gurwin Techsat 1B 25 Aug 15:05:14 15:10:23 52° 260° (W) 15:15:35 435.225
AO-7 25 Aug 15:07:02 15:14:17 34° 63° (ENE) 15:21:31 29.400- 29.500
BEESAT 25 Aug 15:07:09 15:11:17 29° 98° (E) 15:15:23 436.000
JUGNU 25 Aug 15:16:19 15:20:37 21° 185° (S) 15:24:52 437.505
Cosmos 2499 25 Aug 15:17:19 15:21:17 14° 291° (WNW) 15:25:11 435.465 / 435.565
ITAMSAT 1 25 Aug 15:24:11 15:29:20 70° 75° (ENE) 15:34:30 435.822/435.867
ITUPSAT 1 25 Aug 15:52:18 15:57:06 88° 280° (W) 16:01:52 437.325
ISS 25 Aug 15:59:03 15:59:56 11° 28° (NNE) 16:00:49 145.825
AO-85 25 Aug 16:14:30 16:18:36 67° 244° (WSW) 16:22:27 145.980
O/OREOS (USA 219) 25 Aug 16:18:30 16:20:18 12° 301° (WNW) 16:22:06 437.305
SWISSCUBE 25 Aug 16:27:19 16:31:30 31° 289° (WNW) 16:35:41 437.505
STARS 25 Aug 16:41:03 16:43:12 13° 94° (E) 16:45:20 437.465
BEESAT 25 Aug 16:45:08 16:48:52 23° 291° (WNW) 16:52:35 436.000
SRMSAT 25 Aug 16:48:08 16:52:33 22° 180° (S) 16:56:59 437.500
AO-7 25 Aug 16:58:46 17:06:42 47° 258° (WSW) 17:14:42 29.400- 29.500
JUGNU 25 Aug 17:06:11 17:08:56 13° 195° (SSW) 17:11:41 437.505
ITAMSAT 1 25 Aug 17:08:09 17:09:12 11° 268° (W) 17:10:15 435.822/435.867
BRITE-PL 25 Aug 17:11:18 17:13:44 14° 64° (ENE) 17:16:16 437.365/2234.400
MOZHAYETS 4 25 Aug 17:20:02 17:24:35 67° 284° (WNW) 17:29:07
KKS-1 25 Aug 17:32:37 17:37:01 62° 285° (WNW) 17:41:24 437.445
ISS 25 Aug 17:33:33 17:36:50 88° 41° (NE) 17:40:05 145.825
Cubesat XI-IV 25 Aug 17:36:17 17:38:52 14° 64° (ENE) 17:41:27 437.490
CUTE-I 25 Aug 17:47:51 17:51:25 18° 66° (ENE) 17:54:58 437.470
HORYU 2 25 Aug 17:48:34 17:53:02 74° 258° (WSW) 17:57:30 437.375
LilacSat-2 25 Aug 17:54:36 17:56:35 14° 69° (ENE) 17:58:33 437.200
Cosmos 2491 25 Aug 17:55:54 18:02:33 25° 83° (E) 18:09:12 435.465 / 435.565
NOAA 15 25 Aug 17:56:16 18:00:43 29° 69° (ENE) 18:05:11 137.62
NOAA 18 25 Aug 18:05:53 18:10:24 26° 68° (ENE) 18:14:57 137.9125
Cosmos 2504 25 Aug 18:13:54 18:17:38 15° 69° (ENE) 18:21:19 435.465 / 435.565
STARS 25 Aug 18:15:34 18:19:42 41° 287° (WNW) 18:23:48 437.465
YUBILEINY 25 Aug 18:19:21 18:28:02 63° 81° (E) 18:36:38 435.215
CUBESAT XI-V 25 Aug 18:33:12 18:37:55 88° 97° (E) 18:42:38 437.345
GOMX 1 25 Aug 18:35:22 18:40:05 49° 73° (ENE) 18:45:09 467.674
SRMSAT 25 Aug 18:37:18 18:41:04 17° 191° (S) 18:44:52 437.500
BRITE-PL 25 Aug 18:47:06 18:51:36 52° 262° (W) 18:56:30 437.365/2234.400
DOVE 4 25 Aug 18:54:36 18:59:10 35° 71° (ENE) 19:03:54 437.250
Cubesat XI-IV 25 Aug 19:13:02 19:18:20 64° 258° (WSW) 19:23:39 437.490
CUTE-I 25 Aug 19:25:55 19:31:03 47° 260° (W) 19:36:11 437.470
LilacSat-2 25 Aug 19:27:06 19:30:34 31° 262° (W) 19:34:01 437.200
BEESAT 2 25 Aug 19:27:13 19:28:45 12° 50° (NE) 19:30:18 435.950
NOAA 15 25 Aug 19:35:55 19:40:22 28° 263° (W) 19:44:51 137.62
HO-68 25 Aug 19:41:04 19:47:29 37° 67° (ENE) 19:53:54 435.675
CANX-2 25 Aug 19:43:30 19:46:45 22° 71° (ENE) 19:49:59 2200.000
NOAA 18 25 Aug 19:45:52 19:50:51 34° 262° (W) 19:55:52 137.9125
BEESAT 3 25 Aug 19:48:30 19:52:14 38° 58° (ENE) 19:55:56 437.485
CUTE 1.7 + AOD 2 25 Aug 19:50:03 19:53:20 23° 71° (ENE) 19:56:37 437.475
Cosmos 2491 25 Aug 19:50:11 19:58:42 57° 280° (W) 20:07:17 435.465 / 435.565
CINEMA 3 25 Aug 19:52:53 19:57:31 39° 73° (ENE) 20:02:09 145.822/145.860
Cosmos 2504 25 Aug 20:04:32 20:11:43 75° 266° (W) 20:18:52 435.465 / 435.565
AAUSAT CUBESAT 2 25 Aug 20:06:47 20:08:25 12° 68° (ENE) 20:10:02 437.432
COMPASS 1 25 Aug 20:11:07 20:13:57 18° 70° (ENE) 20:16:47 437.405
GOMX 1 25 Aug 20:15:40 20:18:28 15° 269° (W) 20:21:22 467.674
YUBILEINY 25 Aug 20:17:43 20:24:00 23° 278° (W) 20:30:18 435.215
CUBEBUG 2 25 Aug 20:27:47 20:31:33 24° 71° (ENE) 20:35:18 437.445
UWE-3 25 Aug 20:31:21 20:34:19 17° 69° (ENE) 20:37:16 435.000/436.395/437.385
STRAND 1 25 Aug 20:32:46 20:37:53 75° 102° (ESE) 20:42:59 437.568
DOVE 4 25 Aug 20:32:56 20:36:51 22° 266° (W) 20:40:54 437.250
ZACube-1 25 Aug 20:51:16 20:54:15 18° 69° (ENE) 20:57:11 437.345
PRISM 25 Aug 20:56:59 20:58:00 11° 93° (E) 20:59:00 437.425
AIST 1 25 Aug 21:01:26 21:05:30 35° 80° (E) 21:09:30
SEEDS 25 Aug 21:01:27 21:05:34 66° 258° (WSW) 21:09:43 437.485
BEESAT 2 25 Aug 21:02:58 21:06:52 53° 245° (WSW) 21:10:45 435.950
CANX-2 25 Aug 21:19:04 21:22:27 23° 264° (W) 21:25:49 2200.000
CUTE 1.7 + AOD 2 25 Aug 21:25:43 21:29:02 23° 264° (W) 21:32:22 437.475
BEESAT 3 25 Aug 21:27:41 21:29:31 13° 252° (WSW) 21:31:21 437.485
HO-68 25 Aug 21:28:34 21:35:04 36° 261° (W) 21:41:36 435.675
CINEMA 3 25 Aug 21:31:09 21:34:42 19° 266° (W) 21:38:15 145.822/145.860
AAUSAT CUBESAT 2 25 Aug 21:39:35 21:43:28 42° 261° (W) 21:47:23 437.432
PCSat 25 Aug 21:43:45 21:48:23 28° 56° (ENE) 21:52:58 145.827
COMPASS 1 25 Aug 21:45:45 21:49:16 27° 263° (W) 21:52:48 437.405
HUMSAT D 25 Aug 21:57:52 22:00:43 18° 70° (ENE) 22:03:33 437.325/437.525
Oscar 11 25 Aug 22:01:23 22:05:39 67° 259° (W) 22:09:57 145.826/435.025
DELFI C3 25 Aug 22:02:48 22:06:32 44° 75° (ENE) 22:10:17 145.870
CUBEBUG 2 25 Aug 22:04:01 22:08:00 27° 263° (W) 22:11:58 437.445
FUNcube-1 25 Aug 22:05:31 22:09:59 66° 259° (W) 22:14:23 145.935
UWE-3 25 Aug 22:06:10 22:10:27 37° 262° (W) 22:14:41 435.000/436.395/437.385
STRAND 1 25 Aug 22:15:10 22:16:22 11° 297° (WNW) 22:17:34 437.568
ZACube-1 25 Aug 22:26:07 22:30:14 34° 262° (W) 22:34:18 437.345
AUBIESAT-1 25 Aug 22:27:17 22:30:13 17° 63° (ENE) 22:33:12 437.475
PRISM 25 Aug 22:29:28 22:33:29 46° 286° (WNW) 22:37:29 437.425
M-CUBED/EXP-1 PRIME 25 Aug 22:30:12 22:33:47 23° 64° (ENE) 22:37:25 437.505
GONETS M04 25 Aug 22:36:02 22:41:26 17° 68° (ENE) 22:46:47
UNISAT 6 25 Aug 22:38:33 22:41:11 16° 94° (E) 22:43:48 437.425
AIST 1 25 Aug 22:40:18 22:42:42 14° 273° (W) 22:45:04
AIST 2 25 Aug 22:54:55 22:59:07 88° 67° (ENE) 23:03:18 435.215
SO-50 25 Aug 23:09:40 23:10:17 10° 106° (ESE) 23:10:54 436.795
ANTELSAT 25 Aug 23:14:23 23:18:29 43° 99° (E) 23:22:31 437.575/2403.000
CUBEBUG 1 25 Aug 23:15:31 23:17:53 14° 67° (ENE) 23:20:14 437.445
Cosmos 2499 25 Aug 23:16:50 23:21:53 20° 72° (ENE) 23:26:57 435.465 / 435.565
PCSat 25 Aug 23:26:55 23:31:44 33° 252° (WSW) 23:36:30 145.827
50 SAT 25 Aug 23:32:18 23:34:16 14° 70° (ENE) 23:36:14 437.505
HUMSAT D 25 Aug 23:32:29 23:36:06 28° 263° (W) 23:39:43 437.325/437.525
DX 1 25 Aug 23:33:04 23:34:50 12° 66° (ENE) 23:36:37 434.975-435.025
ESTCUBE 1 25 Aug 23:36:46 23:40:57 40° 73° (ENE) 23:45:09 437.505/2401.250
SPROUT 25 Aug 23:44:29 23:45:53 11° 66° (ENE) 23:47:18 437.525
TIGRISAT 25 Aug 23:45:51 23:50:08 78° 285° (WNW) 23:54:21 435.000
POPSAT HIP 1 25 Aug 23:49:43 23:51:37 13° 93° (E) 23:53:30 437.405
AISAT 25 Aug 23:54:21 23:58:23 35° 72° (ENE) 00:02:27 437.250
AUBIESAT-1 25 Aug 23:59:56 00:04:15 43° 257° (WSW) 00:08:41 437.475
M-CUBED/EXP-1 PRIME 26 Aug 00:03:55 00:08:01 32° 258° (WSW) 00:12:15 437.505
UNISAT 6 26 Aug 00:14:08 00:17:57 32° 288° (WNW) 00:21:45 437.425
UKube-1 26 Aug 00:15:32 00:19:16 29° 71° (ENE) 00:23:02 .
QB50P2 26 Aug 00:17:53 00:21:41 32° 98° (E) 00:25:27 145.880/145.840
DUCHIFAT 1 26 Aug 00:18:37 00:22:10 26° 97° (E) 00:25:40 145.980
POLYITAN 1 26 Aug 00:20:25 00:24:13 32° 98° (E) 00:27:59 437.675
CUSAT 1 26 Aug 00:29:30 00:32:08 65° 279° (W) 00:35:12 437.405
GONETS M04 26 Aug 00:30:19 00:39:12 83° 266° (W) 00:48:02
NANOSAT C BR1 26 Aug 00:30:59 00:34:58 41° 99° (E) 00:38:54 145.865
RS-15 26 Aug 00:33:43 00:42:05 24° 101° (E) 00:50:41 29.354- 29.394
VELOX 1 26 Aug 00:41:32 00:45:55 65° 259° (WSW) 00:50:21 145.980
SO-50 26 Aug 00:45:17 00:50:09 71° 300° (WNW) 00:54:59 436.795
CUBEBUG 1 26 Aug 00:49:37 00:53:45 41° 261° (W) 00:57:55 437.445
O/OREOS (USA 219) 26 Aug 00:50:17 00:54:46 51° 68° (ENE) 00:59:14 437.305
ANTELSAT 26 Aug 00:52:56 00:54:46 13° 293° (WNW) 00:56:34 437.575/2403.000
50 SAT 26 Aug 01:04:36 01:07:36 25° 263° (W) 01:10:37 437.505
DANDE 26 Aug 01:06:13 01:08:51 82° 98° (E) 01:11:27 436.750
DX 1 26 Aug 01:06:21 01:10:33 48° 260° (W) 01:14:48 434.975-435.025
Cosmos 2499 26 Aug 01:08:29 01:15:18 54° 268° (W) 01:22:14 435.465 / 435.565
QB50P1 26 Aug 01:13:39 01:17:45 51° 285° (WNW) 01:21:49 145.935-145.965
ESTCUBE 1 26 Aug 01:15:30 01:17:53 14° 267° (W) 01:20:17 437.505/2401.250
SPROUT 26 Aug 01:17:09 01:21:20 50° 260° (W) 01:25:33 437.525
JAS-2 26 Aug 01:19:22 01:26:15 69° 102° (ESE) 01:33:50 435.910
BUGSAT 1 26 Aug 01:22:22 01:26:29 66° 102° (ESE) 01:30:30 437.445
POPSAT HIP 1 26 Aug 01:23:36 01:27:32 39° 287° (WNW) 01:31:26 437.405
PHONESAT 2.4 26 Aug 01:23:46 01:24:27 11° 141° (SE) 01:25:09 2401.200-2431.200
AISAT 26 Aug 01:32:08 01:34:55 16° 266° (W) 01:37:43 437.250
TISAT 1 26 Aug 01:43:52 01:48:03 62° 75° (ENE) 01:52:15 437.305
UKube-1 26 Aug 01:52:17 01:55:18 18° 265° (W) 01:58:19 .
SWISSCUBE 26 Aug 01:53:25 01:56:15 16° 67° (ENE) 01:59:05 437.505
QB50P2 26 Aug 01:54:32 01:57:11 17° 292° (WNW) 01:59:51 145.880/145.840
DUCHIFAT 1 26 Aug 01:54:38 01:57:39 20° 290° (WNW) 02:00:40 145.980
POLYITAN 1 26 Aug 01:57:06 01:59:43 16° 292° (WNW) 02:02:19 437.675
NANOSAT C BR1 26 Aug 02:08:19 02:10:17 13° 293° (WNW) 02:12:15 145.865
BEESAT 26 Aug 02:09:56 02:13:31 22° 69° (ENE) 02:17:06 436.000
GONETS M04 26 Aug 02:31:29 02:34:33 12° 282° (WNW) 02:37:36
Oscar 19 26 Aug 02:31:39 02:36:47 59° 101° (E) 02:41:53 437.125/150
O/OREOS (USA 219) 26 Aug 02:32:05 02:33:39 12° 262° (W) 02:35:12 437.305
RS-15 26 Aug 02:41:41 02:53:06 77° 299° (WNW) 03:05:14 29.354- 29.394
ITUPSAT 1 26 Aug 02:54:39 02:59:23 66° 75° (ENE) 03:04:06 437.325
PHONESAT 2.4 26 Aug 02:57:27 03:00:28 86° 147° (SSE) 03:03:28 2401.200-2431.200
JAS-2 26 Aug 03:06:02 03:10:45 20° 294° (WNW) 03:15:46 435.910
AO-7 26 Aug 03:17:10 03:19:13 11° 91° (E) 03:21:16 29.400- 29.500
Gurwin Techsat 1B 26 Aug 03:25:33 03:30:53 89° 108° (ESE) 03:36:12 435.225
SWISSCUBE 26 Aug 03:29:07 03:33:38 44° 260° (W) 03:38:10 437.505
ITAMSAT 1 26 Aug 03:41:37 03:46:18 34° 98° (E) 03:50:59 435.822/435.867
BEESAT 26 Aug 03:46:51 03:51:04 31° 262° (W) 03:55:18 436.000
Oscar 19 26 Aug 04:12:52 04:15:33 14° 295° (WNW) 04:18:12 437.125/150
MOZHAYETS 4 26 Aug 04:17:21 04:21:53 69° 76° (ENE) 04:26:26
KKS-1 26 Aug 04:26:01 04:30:27 69° 76° (ENE) 04:34:55 437.445
PHONESAT 2.4 26 Aug 04:34:31 04:37:02 24° 349° (NNW) 04:39:34 2401.200-2431.200
AO-85 26 Aug 04:47:11 04:48:34 11° 106° (ESE) 04:49:56 145.980
RS-15 26 Aug 04:59:21 05:07:58 23° 325° (NW) 05:16:56 29.354- 29.394
AO-7 26 Aug 05:04:37 05:12:58 79° 106° (ESE) 05:21:15 29.400- 29.500
STARS 26 Aug 05:07:19 05:11:44 84° 255° (WSW) 05:16:12 437.465
ITAMSAT 1 26 Aug 05:21:31 05:25:31 23° 292° (WNW) 05:29:32 435.822/435.867
YUBILEINY 26 Aug 05:24:43 05:27:44 12° 78° (ENE) 05:30:45 435.215
CUBESAT XI-V 26 Aug 05:32:10 05:36:36 51° 74° (ENE) 05:41:04 437.345
HORYU 2 26 Aug 05:44:07 05:47:54 28° 97° (E) 05:51:40 437.375
Cosmos 2491 26 Aug 06:05:32 06:14:14 60° 81° (E) 06:22:56 435.465 / 435.565
PHONESAT 2.4 26 Aug 06:11:37 06:13:58 20° 6° (N) 06:16:18 2401.200-2431.200
NOAA 15 26 Aug 06:16:37 06:19:36 15° 93° (E) 06:22:35 137.62
AO-85 26 Aug 06:23:06 06:28:29 78° 298° (WNW) 06:33:37 145.980
NOAA 18 26 Aug 06:33:09 06:36:09 15° 94° (E) 06:39:08 137.9125
GOMX 1 26 Aug 06:42:19 06:46:30 23° 93° (E) 06:50:31 467.674
Cosmos 2504 26 Aug 06:47:25 06:52:10 16° 82° (E) 06:56:47 435.465 / 435.565
BRITE-PL 26 Aug 06:55:27 07:01:10 75° 101° (E) 07:06:44 437.365/2234.400
AO-7 26 Aug 06:59:12 07:04:48 20° 303° (WNW) 07:10:23 29.400- 29.500
DOVE 4 26 Aug 06:59:57 07:02:13 13° 90° (E) 07:04:25 437.250
LilacSat-2 26 Aug 07:04:24 07:07:49 33° 98° (E) 07:11:14 437.200
CUBESAT XI-V 26 Aug 07:12:35 07:14:13 12° 268° (W) 07:15:52 437.345
YUBILEINY 26 Aug 07:14:14 07:23:03 83° 94° (E) 07:31:55 435.215
HORYU 2 26 Aug 07:20:59 07:24:16 21° 291° (WNW) 07:27:31 437.375
RS-15 26 Aug 07:24:23 07:27:41 11° 2° (N) 07:30:58 29.354- 29.394
Cubesat XI-IV 26 Aug 07:34:31 07:39:50 74° 102° (ESE) 07:45:08 437.490
STRAND 1 26 Aug 07:44:20 07:49:23 69° 76° (ENE) 07:54:28 437.568
CUTE-I 26 Aug 07:46:59 07:52:19 83° 284° (WNW) 07:57:37 437.470
PHONESAT 2.4 26 Aug 07:47:46 07:50:42 52° 22° (NNE) 07:53:37 2401.200-2431.200
NOAA 15 26 Aug 07:54:27 07:59:37 53° 287° (WNW) 08:04:46 137.62
CINEMA 3 26 Aug 07:54:46 07:56:02 11° 91° (E) 07:57:17 145.822/145.860
Cosmos 2491 26 Aug 08:03:44 08:10:20 24° 277° (W) 08:16:58 435.465 / 435.565
AO-85 26 Aug 08:08:40 08:09:37 10° 314° (NW) 08:10:35 145.980
NOAA 18 26 Aug 08:11:45 08:17:05 56° 287° (WNW) 08:22:23 137.9125
GOMX 1 26 Aug 08:19:41 08:24:36 36° 289° (WNW) 08:29:17 467.674
ISS 26 Aug 08:34:41 08:37:09 20° 128° (SE) 08:39:38 145.825
DOVE 4 26 Aug 08:35:20 08:40:15 53° 286° (WNW) 08:44:51 437.250
Cosmos 2504 26 Aug 08:36:00 08:44:39 80° 276° (W) 08:52:46 435.465 / 435.565
BRITE-PL 26 Aug 08:36:15 08:38:53 13° 296° (WNW) 08:41:29 437.365/2234.400
LilacSat-2 26 Aug 08:40:10 08:41:47 12° 291° (WNW) 08:43:23 437.200
SEEDS 26 Aug 08:49:48 08:53:23 26° 97° (E) 08:56:56 437.485
HO-68 26 Aug 09:00:04 09:07:06 57° 102° (ESE) 09:14:05 435.675
CANX-2 26 Aug 09:07:08 09:11:23 79° 102° (ESE) 09:15:37 2200.000
CUTE 1.7 + AOD 2 26 Aug 09:13:36 09:17:51 81° 100° (E) 09:22:06 437.475
PRISM 26 Aug 09:14:16 09:18:17 66° 76° (ENE) 09:22:22 437.425
YUBILEINY 26 Aug 09:15:26 09:20:47 17° 292° (WNW) 09:26:11 435.215
Cubesat XI-IV 26 Aug 09:17:24 09:19:13 12° 297° (WNW) 09:21:02 437.490
SO-50 26 Aug 09:21:16 09:25:21 31° 55° (NE) 09:29:20 436.795
PHONESAT 2.4 26 Aug 09:24:35 09:26:53 20° 216° (SW) 09:29:12 2401.200-2431.200
AAUSAT CUBESAT 2 26 Aug 09:25:48 09:29:41 37° 99° (E) 09:33:33 437.432
AIST 1 26 Aug 09:26:33 09:30:06 25° 90° (E) 09:33:41
STRAND 1 26 Aug 09:28:06 09:28:57 10° 268° (W) 09:29:48 437.568
CINEMA 3 26 Aug 09:29:08 09:33:29 48° 286° (WNW) 09:37:38 145.822/145.860
COMPASS 1 26 Aug 09:31:53 09:36:02 60° 100° (E) 09:40:10 437.405
BEESAT 3 26 Aug 09:35:59 09:38:38 18° 110° (ESE) 09:41:20 437.485
RS-15 26 Aug 09:37:21 09:47:03 25° 38° (NE) 09:56:36 29.354- 29.394
Oscar 11 26 Aug 09:53:04 09:56:50 29° 97° (E) 10:00:35 145.826/435.025
FUNcube-1 26 Aug 09:58:12 10:01:51 29° 97° (E) 10:05:27 145.935
CUBEBUG 2 26 Aug 09:58:33 10:02:47 89° 288° (WNW) 10:06:56 437.445
UWE-3 26 Aug 09:59:53 10:04:00 58° 100° (E) 10:08:04 435.000/436.395/437.385
ANTELSAT 26 Aug 10:09:08 10:12:54 25° 71° (ENE) 10:16:38 437.575/2403.000
ISS 26 Aug 10:10:35 10:13:28 28° 322° (NW) 10:16:23 145.825
ZACube-1 26 Aug 10:18:20 10:22:26 60° 100° (E) 10:26:31 437.345
